Aeroporto :
LOGIN :

Iscrizione | Disclaimer

   EN    FR    IT 

 










Sommario :    VFR   VFR Marginale   IFR   IFR Intensivo   IFR Molto Intensivo
Visibilità : 
Base nubi : 
>= 8 km
>= 3000ft
5 / 8 km
1000 / 3000 ft
1500m / 5 km
500 / 1000 ft
800 / 1500m
200 / 500 ft
< 800m
< 200 ft
Simboli :   Temporali  Nebbia  Neve Forte  Precipitazioni Forti  Vento > 20 kt
SIGMETs :   Varie  Temporali  Ghiacco  Turbolenza  Onda orograficha  Ceneri Vulcaniche






- Altitudine del aeroporto : 117 ft
- Codice IATA : NWI


EGSH - Norwich

ULTIMO METAR :
  • 231420Z 20004KT 160V250 9999 FEW021 BKN024 06/03 Q1034

METARs OBSOLETI :
  • 231350Z 21005KT 9999 FEW021 BKN024 07/03 Q1034
  • 231320Z 21006KT 170V240 9999 FEW021 BKN024 07/03 Q1035
  • 231250Z 21007KT 180V240 9999 BKN024 07/03 Q1035 NOSIG
  • 231220Z 22004KT 180V250 9999 BKN028 07/03 Q1035 NOSIG
  • 231150Z 24003KT 9999 BKN028 07/04 Q1035 NOSIG

TAF TAF EGSH
Valido dal 23 a 15 ore il 24 a 00 ore UTC


231354Z 2315/2324 20005KT 9999 BKN025
PROB30
TEMPO 2315/2324 9000 BKN012
ATIS : +44 1603 420 640



MetMap, La meteo Aeronautica in un colpo d'occhio ! - Copyright ORBIFLY Dicembre 2007 - Disclaimer

ORBIFLY MET'MAP TEAM :

Programmazione e sviluppo : Alexandra Zaïnal
Concezione : Baudouin d'Aumeries
Aiuto per la programmazione : Marc-Olivier Méhu
Supporto tecnico e logistico : Manuel Goepfert
Aiuto per la traduzione : Arnaldo La Scala

Contatto : metmap@orbifly.com




FONTI E CREDITI :

   NOAA